Regional Weather Roundup
Issued by NWS

Home | Current Version | Previous Version | Graphics & Text | Print | Product List | Glossary On
Versions: 1 2 3 4 5 6 7 8 9 10 11 12 13 14 15 16 17 18 19 20 21 22 23 24 25 26 27 28 29 30 31 32 33 34 35 36 37 38 39 40 41 42 43 44 45 46 47 48 49 50
000
ASUS43 KOAX 220110
RWRNE

WEATHER ROUNDUP FOR NEBRASKA
NATIONAL WEATHER SERVICE OMAHA NE
800 PM CDT WED JUN 21 2017

NOTES: SATELLITE DATA IS BEING USED TO AUGMENT CLOUD COVER ABOVE
       12000 FEET.
       "FAIR" INDICATES FEW OR NO CLOUDS BELOW 12,000 FEET WITH NO
       SIGNIFICANT WEATHER AND/OR OBSTRUCTIONS TO VISIBILITY.

  * THESE STATIONS DO NOT REPORT WEATHER SUCH AS RAIN...SNOW OR FOG.

NEZ001>004-019>022-054>056-220200-
NEBRASKA PANHANDLE

CITY           SKY/WX    TMP DP  RH WIND       PRES   REMARKS
SCOTTSBLUFF    SUNNY     91  49  23 NE9       29.78F
ALLIANCE       SUNNY     91  51  25 E5        29.78F
CHADRON        SUNNY     90  55  30 NE9       29.73S
GORDON         FAIR      88  56  33 NE5       29.77S
KIMBALL        CLOUDY    89  49  25 CALM      29.88F
SIDNEY         SUNNY     92  42  17 N8        29.84F
$$

NEZ057>060-069>072-079>082-220200-
SOUTHWEST NEBRASKA

CITY           SKY/WX    TMP DP  RH WIND       PRES   REMARKS
NORTH PLATTE   SUNNY     98  50  19 N6        29.70F HX  95
IMPERIAL       SUNNY     97  45  16 NE5       29.74F HX  93
LEXINGTON      CLOUDY    88  68  51 S9        29.68F HX  92
MCCOOK         CLOUDY    99  62  29 NE3       29.67S HX 100
OGALLALA       SUNNY     98  41  14 N6        29.75S HX  93
$$

NEZ005>010-023>029-035>040-094-220200-
NORTH CENTRAL NEBRASKA

CITY           SKY/WX    TMP DP  RH WIND       PRES   REMARKS
VALENTINE      MOSUNNY   96  50  20 N8        29.70F HX  93
AINSWORTH      PTSUNNY   89  62  39 NE6       29.71S
BROKEN BOW     MOSUNNY   95  65  37 S8        29.67F HX  97
O`NEILL        MOSUNNY   91  67  46 N6        29.68R HX  94
ORD            SUNNY     94  64  37 S6        29.65S HX  95
THEDFORD       MOSUNNY   93  58  30 E8        29.74R HX  91
$$

NEZ041-046>049-061>064-073>077-083>087-220200-
SOUTH CENTRAL NEBRASKA

CITY           SKY/WX    TMP DP  RH WIND       PRES   REMARKS
GRAND ISLAND   SUNNY     91  69  48 S10       29.66F HX  96
AURORA         SUNNY     92  68  45 S12       29.68S HX  95
HASTINGS       SUNNY     91  67  44 S9        29.69F HX  94
HEBRON         CLEAR     92  60  34 S17G23    29.70S HX  92
HOLDREGE       CLOUDY    88  66  48 E3        29.69S HX  90
KEARNEY *      CLOUDY    90  66  45 S10       29.68F HX  92
YORK           CLOUDY    91  66  43 S15       29.68S HX  94
$$

NEZ011>018-030>034-042>045-220200-
NORTHEAST NEBRASKA

CITY           SKY/WX    TMP DP  RH WIND       PRES   REMARKS
NORFOLK        PTSUNNY   90  68  48 S13       29.62R HX  94
ALBION         CLOUDY    92  68  46 S8        29.66R HX  96
BLAIR          CLEAR     92  64  39 S18G25    29.67S HX  93
FREMONT        CLEAR     92  62  37 S15G21    29.65S HX  92
TEKAMAH        CLEAR     93  63  36 S16       29.63F HX  94
WAYNE          MOSUNNY   90  72  54 S9        29.63S HX  96
$$

NEZ050>053-065>068-078-088>093-220200-
SOUTHEAST NEBRASKA

CITY           SKY/WX    TMP DP  RH WIND       PRES   REMARKS
LINCOLN        CLEAR     89  63  41 S12       29.68S HX  90
OMAHA EPPLEY   PTCLDY    93  63  36 S16       29.67R HX  94
BEATRICE       CLEAR     89  61  38 S15G24    29.71F
FALLS CITY     CLEAR     87  61  41 S14G21    29.75R
NEBRASKA CITY  CLEAR     88  59  38 S18G24    29.73R
PLATTSMOUTH    CLEAR     88  59  37 S17G23    29.70S
$$

NEZ044-045-051>053-067-220200-
OMAHA AREA

CITY           SKY/WX    TMP DP  RH WIND       PRES   REMARKS
OMAHA EPPLEY   PTCLDY    93  63  36 S16       29.67R HX  94
BLAIR          CLEAR     92  64  39 S18G25    29.67S HX  93
FREMONT        CLEAR     92  62  37 S15G21    29.65S HX  92
MILLARD        CLEAR     93  66  41 S13G18    29.68R HX  95
OFFUTT AFB     CLEAR     90  62  38 S14G22    29.68S HX  90
PLATTSMOUTH    CLEAR     88  59  37 S17G23    29.70S
WAHOO          FAIR      91  60  34 S17       29.66S HX  91
$$




USA.gov is the U.S. government's official web portal to all federal, state and local government web resources and services.